DW4394 Weather Reports


Display with metric or nautical units.
time (UTC)temp
F
wind
direction
speed
MPH
gust
MPH
rain 1hr
in
rain 24hr
in
rain mn
in
humidity
%
barometer
mb
20260509153102 84 184 3.0 5.0 0.00 0.00 0.00 19 1006.4
20260509151603 83 244 0.0 3.0 0.00 0.00 0.00 20 1006.4
20260509150105 81 355 2.0 4.0 0.00 0.00 0.00 20 1006.4
20260509144600 81 287 1.0 3.0 0.00 0.00 0.00 20 1006.3
20260509143101 80 5 1.0 3.0 0.00 0.00 0.00 21 1006.3
20260509141600 79 185 0.0 3.0 0.00 0.00 0.00 22 1006.1
20260509140104 78 206 1.0 3.0 0.00 0.00 0.00 21 1005.9
20260509134628 77 242 0.0 1.0 0.00 0.00 0.00 20 1005.7
20260509133100 76 217 0.0 3.0 0.00 0.00 0.00 20 1005.6
20260509131558 76 165 1.0 5.0 0.00 0.00 0.00 20 1005.4
20260509130101 76 133 1.0 3.0 0.00 0.00 0.00 20 1005.2
20260509124601 77 146 3.0 8.0 0.00 0.00 0.00 20 1005.0
20260509123059 77 103 1.0 8.0 0.00 0.00 0.00 19 1004.9
20260509121558 77 142 3.0 7.0 0.00 0.00 0.00 19 1004.7
20260509120058 77 135 4.0 7.0 0.00 0.00 0.00 19 1004.6
20260509120001 77 148 4.0 7.0 0.00 0.00 0.00 19 1004.6
20260509114600 77 150 3.0 7.0 0.00 0.00 0.00 19 1004.6
20260509113059 78 142 1.0 4.0 0.00 0.00 0.00 19 1004.5
20260509111559 78 178 2.0 8.0 0.00 0.00 0.00 19 1004.5
20260509110059 78 186 3.0 7.0 0.00 0.00 0.00 19 1004.4
20260509104559 79 170 3.0 8.0 0.00 0.00 0.00 19 1004.4
20260509103059 79 141 4.0 7.0 0.00 0.00 0.00 18 1004.2
20260509101605 79 146 4.0 8.0 0.00 0.00 0.00 19 1004.3
20260509100059 80 161 4.0 7.0 0.00 0.00 0.00 18 1004.3
20260509094558 80 165 3.0 7.0 0.00 0.00 0.00 18 1004.3
20260509093100 81 200 4.0 10.0 0.00 0.00 0.00 18 1004.3
20260509091559 81 204 4.0 10.0 0.00 0.00 0.00 18 1004.4
20260509090100 81 180 6.0 9.0 0.00 0.00 0.00 18 1004.4
20260509084601 81 214 5.0 10.0 0.00 0.00 0.00 18 1004.4
20260509083058 82 161 4.0 11.0 0.00 0.00 0.00 17 1004.4
20260509081559 82 224 5.0 11.0 0.00 0.00 0.00 16 1004.4
20260509080059 82 190 5.0 8.0 0.00 0.00 0.00 16 1004.5
20260509080002 82 154 5.0 10.0 0.00 0.00 0.00 16 1004.5
20260509074502 82 159 6.0 9.0 0.00 0.00 0.00 15 1004.5
20260509073003 83 123 5.0 9.0 0.00 0.00 0.00 14 1004.4
20260509071501 83 171 5.0 7.0 0.00 0.00 0.00 13 1004.4
20260509070006 83 151 4.0 9.0 0.00 0.00 0.00 12 1004.4
20260509064502 83 133 4.0 9.0 0.00 0.00 0.00 11 1004.3
20260509063001 83 138 5.0 8.0 0.00 0.00 0.00 11 1004.3
20260509061501 83 162 4.0 7.0 0.00 0.00 0.00 11 1004.2
20260509060004 83 163 4.0 7.0 0.00 0.00 0.00 11 1004.2
20260509054502 84 154 4.0 8.0 0.00 0.00 0.00 11 1004.1
20260509053003 84 142 4.0 7.0 0.00 0.00 0.00 11 1004.2
20260509051501 84 147 4.0 7.0 0.00 0.00 0.00 11 1004.3
20260509050004 84 139 5.0 8.0 0.00 0.00 0.00 10 1004.2
20260509044501 85 144 4.0 7.0 0.00 0.00 0.00 10 1004.2
20260509043001 85 150 3.0 7.0 0.00 0.00 0.00 10 1004.1
20260509041503 86 146 4.0 7.0 0.00 0.00 0.00 10 1004.1
20260509040004 87 144 3.0 5.0 0.00 0.00 0.00 10 1003.9
20260509034506 87 136 3.0 5.0 0.00 0.00 0.00 10 1003.8
20260509033002 88 175 3.0 5.0 0.00 0.00 0.00 10 1003.6
20260509031503 89 190 2.0 5.0 0.00 0.00 0.00 10 1003.6
20260509030004 90 185 2.0 6.0 0.00 0.00 0.00 10 1003.5
20260509024501 91 202 3.0 8.0 0.00 0.00 0.00 9 1003.2
20260509023003 92 199 4.0 10.0 0.00 0.00 0.00 9 1003.1
20260509021502 93 198 4.0 9.0 0.00 0.00 0.00 9 1002.9
20260509020003 94 217 5.0 9.0 0.00 0.00 0.00 8 1002.9
20260509014501 95 263 3.0 10.0 0.00 0.00 0.00 8 1002.8
20260509013003 96 238 4.0 9.0 0.00 0.00 0.00 8 1002.7
20260509011501 97 173 4.0 12.0 0.00 0.00 0.00 8 1002.8
20260509010003 98 163 4.0 9.0 0.00 0.00 0.00 8 1002.9
20260509004500 99 180 4.0 9.0 0.00 0.00 0.00 8 1002.9
20260509003101 99 155 1.0 9.0 0.00 0.00 0.00 7 1003.0
20260509003001 99 128 1.0 9.0 0.00 0.00 0.00 7 1003.0
20260509001602 101 203 3.0 9.0 0.00 0.00 0.00 7 1003.1
20260509000100 100 234 2.0 7.0 0.00 0.00 0.00 7 1003.1
20260509000003 100 257 1.0 7.0 0.00 0.00 0.00 7 1003.2
20260508234502 100 306 1.0 11.0 0.00 0.00 0.00 7 1003.4
20260508233002 102 188 3.0 9.0 0.00 0.00 0.00 7 1003.6
20260508231601 101 196 2.0 6.0 0.00 0.00 0.00 6 1003.5
20260508230100 101 291 2.0 10.0 0.00 0.00 0.00 7 1003.7
20260508230003 101 257 3.0 10.0 0.00 0.00 0.00 7 1003.8
20260508224501 101 215 4.0 11.0 0.00 0.00 0.00 6 1003.9
20260508223101 100 323 2.0 12.0 0.00 0.00 0.00 7 1003.9
20260508221601 100 197 2.0 7.0 0.00 0.00 0.00 7 1004.0
20260508220001 101 212 6.0 15.0 0.00 0.00 0.00 7 1004.4
20260508214613 100 5 2.0 5.0 0.00 0.00 0.00 8 1004.6
20260508214501 101 17 2.0 6.0 0.00 0.00 0.00 8 1004.7
20260508213002 101 196 7.0 12.0 0.00 0.00 0.00 8 1004.9
20260508211600 101 99 2.0 7.0 0.00 0.00 0.00 8 1005.1
20260508210100 100 171 6.0 10.0 0.00 0.00 0.00 8 1005.5
20260508204602 100 355 3.0 5.0 0.00 0.00 0.00 9 1005.8
20260508204505 100 308 2.0 5.0 0.00 0.00 0.00 9 1005.8
20260508203003 99 160 2.0 7.0 0.00 0.00 0.00 8 1006.0
20260508201600 98 166 2.0 8.0 0.00 0.00 0.00 9 1006.2
20260508201501 99 195 2.0 8.0 0.00 0.00 0.00 8 1006.2
20260508200101 97 279 1.0 5.0 0.00 0.00 0.00 9 1006.5
20260508194601 96 325 2.0 5.0 0.00 0.00 0.00 9 1006.7
20260508193120 97 98 2.0 6.0 0.00 0.00 0.00 9 1006.9
20260508191502 96 5 1.0 3.0 0.00 0.00 0.00 9 1007.0
20260508190009 96 19 1.0 6.0 0.00 0.00 0.00 9 1007.3
20260508184604 95 184 1.0 5.0 0.00 0.00 0.00 10 1007.4
20260508184505 95 185 1.0 5.0 0.00 0.00 0.00 10 1007.4
20260508183115 95 16 1.0 5.0 0.00 0.00 0.00 10 1007.6
20260508183001 95 311 1.0 5.0 0.00 0.00 0.00 10 1007.6
20260508181601 94 310 2.0 6.0 0.00 0.00 0.00 11 1007.8
20260508180002 93 159 2.0 5.0 0.00 0.00 0.00 11 1007.9
20260508174614 92 18 2.0 4.0 0.00 0.00 0.00 12 1007.9
20260508173100 92 13 1.0 6.0 0.00 0.00 0.00 12 1008.0
20260508171606 91 350 2.0 6.0 0.00 0.00 0.00 12 1008.0
20260508170004 89 261 2.0 6.0 0.00 0.00 0.00 13 1008.1
20260508164601 89 244 1.0 4.0 0.00 0.00 0.00 13 1008.2
20260508163100 89 289 1.0 4.0 0.00 0.00 0.00 14 1008.2
20260508161607 87 259 0.0 5.0 0.00 0.00 0.00 14 1008.2
20260508160002 86 177 2.0 7.0 0.00 0.00 0.00 15 1008.0
20260508154601 85 186 3.0 7.0 0.00 0.00 0.00 17 1008.0